Dewpoint
23 20 18 15 15 13 13 12 14 15 14 14 14 14 14 15 16 15 17 16 16 19
17 15 13 12 13 13 12 10 12 13 12 12 12 12 12 12 13 14 14 14 16 16
11 10 10 10 9 9 9 10 10 10 10 10 10 10 10 12 13 12 12 13 13 14
10 9 8 8 8 7 8 8 9 9 9 9 10 10 10 11 11 10 11 11 11 14
10 9 8 7 8 8 7 8 9 10 10 10 11 11 11 11 11 11 10 12 14 16
10 9 9 9 9 9 9 9 10 11 11 11 12 13 12 12 12 13 15 16 18 19
10 10 10 10 11 10 10 11 12 13 12 13 14 14 13 12 14 16 18 20 21 20
11 11 11 12 12 11 11 12 13 13 13 14 14 13 13 15 17 18 19 21 21 21
11 10 10 11 10 10 11 12 12 12 13 14 12 12 14 16 17 18 20 20 21 19
10 10 10 9 9 9 9 10 11 12 12 11 10 12 14 15 16 19 20 20 19 17
8 8 8 8 8 8 9 11 12 12 11 10 9 11 12 14 18 19 20 19 18 18
7 7 7 7 7 8 11 12 12 10 9 8 7 11 12 16 18 19 19 19 19 21
7 7 6 7 7 11 14 13 11 10 8 9 7 11 14 17 17 17 19 20 22 23
7 6 6 8 11 14 13 11 10 8 7 7 9 13 16 18 18 19 20 22 23 22
Wind_Speed
12 11 11 10 8 8 7 7 8 9 10 10 11 11 12 13 14 15 18 18 19 17
12 11 10 9 8 7 8 7 10 9 10 11 12 13 13 14 17 17 17 19 19 17
11 9 9 9 8 8 8 8 9 10 11 12 13 14 14 15 14 18 17 16 17 20
10 8 8 8 8 8 8 9 9 10 11 13 14 15 15 16 18 18 20 16 21 22
8 7 7 7 7 8 8 8 9 11 12 14 15 15 18 18 17 20 17 20 22 24
8 8 7 7 7 7 7 9 11 11 13 15 16 16 16 17 18 15 18 21 23 25
8 5 5 5 5 7 8 10 12 13 14 16 16 16 18 17 16 17 17 21 23 24
4 4 3 4 5 8 9 11 13 14 15 17 17 16 18 19 16 16 20 22 23 23
4 3 3 4 6 9 11 12 14 17 17 18 16 22 26 25 19 16 19 24 24 23
3 2 3 5 8 10 13 14 17 17 17 18 17 23 26 26 19 15 20 22 24 24
1 2 5 7 9 11 13 16 17 17 18 18 17 25 26 26 15 17 18 20 23 22
3 4 6 8 11 13 15 16 16 16 18 19 19 21 26 23 17 16 20 20 20 22
1 4 7 9 12 12 14 16 15 18 17 19 20 19 24 23 19 20 20 20 18 25
2 5 7 10 11 13 15 17 16 17 17 18 17 18 25 28 23 19 22 21 22 21
Wind_Direction
89 90 81 72 65 55 50 33 29 11 3 355 347 337 333 325 314 313 306 307 304 299
86 84 80 68 60 40 36 19 11 358 354 346 337 331 325 317 310 305 305 302 294 300
88 78 73 68 50 37 19 18 358 350 347 336 326 322 320 315 311 308 302 301 308 304
84 74 71 63 42 27 10 7 349 342 330 324 319 318 320 316 310 307 304 312 310 304
92 79 64 52 35 22 8 349 338 327 322 319 316 317 315 308 306 304 317 318 311 307
88 68 53 41 25 7 346 332 323 322 316 314 313 308 304 307 305 323 319 313 312 307
82 64 50 27 4 343 333 325 317 312 307 308 303 305 308 302 315 311 314 310 307 304
90 73 38 9 345 326 319 309 305 307 310 306 308 310 311 315 315 316 314 312 305 299
87 41 13 341 320 314 310 311 313 314 313 315 313 312 313 315 318 320 316 308 303 303
82 8 336 322 322 320 321 321 319 317 318 312 309 312 316 318 317 314 309 303 307 310
90 342 331 334 326 327 323 321 320 316 309 306 306 317 318 317 318 305 297 303 306 309
30 335 336 328 328 330 328 321 315 310 308 311 311 319 320 318 308 304 301 300 302 309
337 320 321 327 335 323 321 310 309 306 309 312 316 316 318 320 317 307 308 308 310 309
323 325 336 336 320 312 312 306 303 313 317 318 318 325 327 326 318 317 315 320 315 310